User: anonymous   Login
Location: Mauna Kea VIS
(19.7591°N, 155.4561°W)
Time: 23:26:46
(UTC-10:00)
Language:

Cosmos 1624 Rocket - Orbit

View from above orbital plane
View from above orbital plane
View from above satellite
View from above satellite

Ground track
Ground track

The orbit data is extracted from the following two-line orbital elements,

1 15483U 85006B   18055.60932841 +.00000082 +00000-0 +36891-4 0  9993
2 15483 074.0436 251.9959 0018763 173.8814 241.3807 14.36218025732519
Epoch (UTC): 24 February 2018 14:37:25
Eccentricity: 0.0018763
inclination: 74.0436°
perigee height: 757 km
apogee height: 784 km
right ascension of ascending node: 251.9959°
argument of perigee: 173.8814°
revolutions per day: 14.36218025
mean anomaly at epoch: 241.3807°
orbit number at epoch: 73251

The dashed part of the orbit path shows where the satellite is in the earth's shadow,  

DLR